Mobile, AL

8:15 AM CDT on April 28, 2017 (GMT -0500)
Mobile Regional

Weather History for KMOB - October, 2010

Change the Weather History Date:

Saturday, October 23, 2010

  Actual Average Record
Temperature  
Mean Temperature 69 °F 66 °F  
Max Temperature 83 °F 77 °F 90 °F (1941)
Min Temperature 55 °F 55 °F 38 °F (1999)
Degree Days  
Heating Degree Days 0 2  
Month to date heating degree days 16 26  
Since 1 July heating degree days 16 28  
Cooling Degree Days 4 4  
Month to date cooling degree days 79 133  
Year to date cooling degree days 2698 2437  
Growing Degree Days 18 (Base 50)    
Moisture  
Dew Point 57 °F    
Average Humidity 63    
Maximum Humidity 93    
Minimum Humidity 32    
Precipitation  
Precipitation 0.00 in 0.12 in 2.55 in (1892)
Month to date precipitation 0.00 2.68  
Year to date precipitation 48.48 54.95  
Sea Level Pressure  
Sea Level Pressure 30.13 in    
Wind  
Wind Speed 7 mph (SE)    
Max Wind Speed 21 mph    
Max Gust Speed 25 mph    
Visibility 10 miles    
Events      
T = Trace of Precipitation, MM = Missing Value Source: NWS Daily Summary

Daily Weather History Graph

Daily Weather History Graph

Search for Another Location

Airport or City:

Trip Planner

Search our weather history database for the weather conditions in past years. The results will help you decide how hot, cold, wet, or windy it might be!

Date:

Astronomy

Oct. 23, 2010 Rise Set
Actual Time 7:00 AM CDT 6:13 PM CDT
Civil Twilight 6:36 AM CDT 6:37 PM CDT
Nautical Twilight 6:08 AM CDT 7:05 PM CDT
Astronomical Twilight 5:40 AM CDT 7:33 PM CDT
Moon 6:25 PM CDT (10/23) 7:33 AM CDT (10/23)
Length of Visible Light 12h 01m
Length of Day
11h 12m
Full, 100% of the Moon is Illuminated
Oct 23
Full
Oct 30
Last Quarter
Nov 5
New
Nov 13
First Quarter
Nov 21
Full

Hourly Weather History & Observations

Time (CDT) Temp. Heat Index Dew Point Humidity Pressure Visibility Wind Dir Wind Speed Gust Speed Precip Events Conditions
12:56 AM 55.9 °F - 53.1 °F 90% 30.13 in 10.0 mi Calm Calm - N/A   Partly Cloudy
1:56 AM 57.0 °F - 53.1 °F 87% 30.13 in 10.0 mi Calm Calm - N/A   Partly Cloudy
2:56 AM 57.0 °F - 53.1 °F 87% 30.13 in 10.0 mi Calm Calm - N/A   Partly Cloudy
3:56 AM 55.0 °F - 52.0 °F 89% 30.12 in 10.0 mi Calm Calm - N/A   Clear
4:56 AM 57.0 °F - 54.0 °F 89% 30.13 in 10.0 mi Calm Calm - N/A   Clear
5:56 AM 57.0 °F - 52.0 °F 83% 30.14 in 10.0 mi Calm Calm - N/A   Clear
6:56 AM 55.9 °F - 52.0 °F 87% 30.14 in 10.0 mi Calm Calm - N/A   Clear
7:56 AM 59.0 °F - 50.0 °F 72% 30.15 in 10.0 mi Calm Calm - N/A   Partly Cloudy
8:56 AM 64.9 °F - 48.9 °F 56% 30.17 in 10.0 mi Calm Calm - N/A   Partly Cloudy
9:56 AM 72.0 °F - 45.0 °F 38% 30.18 in 10.0 mi East 8.1 mph - N/A   Partly Cloudy
10:56 AM 78.1 °F - 46.0 °F 32% 30.17 in 10.0 mi ESE 9.2 mph - N/A   Clear
11:56 AM 80.6 °F - 50.0 °F 34% 30.17 in 10.0 mi ESE 11.5 mph 20.7 mph N/A   Clear
12:56 PM 82.0 °F 81.4 °F 55.0 °F 39% 30.14 in 10.0 mi SE 13.8 mph 21.9 mph N/A   Partly Cloudy
1:56 PM 81.0 °F 81.1 °F 57.9 °F 45% 30.12 in 10.0 mi South 17.3 mph 21.9 mph N/A   Partly Cloudy
2:56 PM 79.0 °F - 63.0 °F 58% 30.10 in 10.0 mi SSE 12.7 mph - N/A   Scattered Clouds
3:56 PM 80.1 °F 81.2 °F 62.1 °F 54% 30.11 in 10.0 mi SSE 10.4 mph - N/A   Scattered Clouds
4:56 PM 77.0 °F - 63.0 °F 62% 30.11 in 10.0 mi SSE 15.0 mph - N/A   Scattered Clouds
5:56 PM 75.9 °F - 64.9 °F 69% 30.11 in 10.0 mi SSE 10.4 mph - N/A   Partly Cloudy
6:56 PM 73.0 °F - 66.9 °F 81% 30.10 in 10.0 mi SE 9.2 mph - N/A   Partly Cloudy
7:56 PM 73.9 °F - 66.9 °F 79% 30.11 in 10.0 mi ESE 16.1 mph - N/A   Scattered Clouds
8:56 PM 73.0 °F - 66.9 °F 81% 30.11 in 10.0 mi SE 12.7 mph - N/A   Mostly Cloudy
9:56 PM 72.0 °F - 66.9 °F 84% 30.11 in 10.0 mi SE 11.5 mph - N/A   Scattered Clouds
10:56 PM 70.0 °F - 66.9 °F 90% 30.13 in 10.0 mi SE 8.1 mph - N/A   Scattered Clouds
11:56 PM 69.1 °F - 64.9 °F 87% 30.13 in 10.0 mi SSE 3.5 mph - N/A   Partly Cloudy